Theta_e
318 332 339 345 348 347 350 348 346 344 344 341 342 345 348 348 350 355 345 343 345 347 346 344 341 344 344 341 339 339 340 340 342 342 341 341 341 340 339 339 339 341 341 342 344 345 345 345 347
332 338 342 344 348 353 347 343 345 345 342 342 343 343 348 350 345 345 342 345 346 346 344 344 341 340 341 343 342 340 341 340 338 337 336 337 339 340 339 338 338 339 340 341 344 346 347 346 345
326 338 341 346 348 352 348 342 344 344 342 343 348 345 347 348 344 344 345 345 345 344 344 343 341 342 342 342 340 340 340 340 337 335 334 335 337 339 338 337 337 337 337 338 340 343 344 344 344
331 336 341 346 350 346 344 344 343 340 341 342 344 350 346 345 344 344 343 345 344 344 343 342 340 340 341 341 340 340 340 340 339 338 336 336 336 338 338 337 336 335 335 335 331 334 343 343 341
333 340 345 350 348 346 345 344 343 348 346 343 344 349 347 343 343 343 342 343 343 342 341 340 337 338 339 339 338 337 337 337 337 338 338 337 335 332 330 331 334 334 332 327 326 325 326 332 338
341 341 349 348 343 347 345 344 349 349 346 345 346 347 346 342 341 341 342 342 341 341 340 338 333 328 329 334 334 333 331 331 330 330 330 332 331 329 326 326 326 328 329 327 324 323 325 324 324
340 343 349 346 342 347 345 346 349 351 350 352 344 347 343 341 340 340 339 339 340 340 339 338 336 334 331 327 327 327 326 326 327 327 328 328 328 330 330 331 329 329 328 332 328 324 322 324 325
340 342 347 346 351 345 345 347 347 350 350 345 346 350 345 339 339 338 337 335 334 332 332 332 329 327 324 323 321 320 320 321 319 318 318 324 327 334 332 332 334 330 326 327 336 329 324 323 323
337 347 347 343 344 346 346 348 345 342 343 340 341 340 337 337 338 336 334 331 329 327 325 323 322 320 320 320 320 321 321 322 323 323 322 324 325 323 325 328 331 329 328 328 330 330 328 327 324
342 343 342 341 341 342 347 347 347 345 344 341 338 335 336 336 336 333 330 327 326 326 326 325 324 323 323 322 321 322 320 319 319 319 319 320 322 325 326 324 323 324 328 329 329 332 331 329 326
339 342 337 339 341 343 344 347 344 344 344 340 338 333 328 327 324 324 324 324 325 325 324 323 322 322 321 321 320 320 320 318 319 318 318 319 318 320 326 327 327 327 327 326 326 330 331 333 333
341 339 340 342 342 343 345 345 345 344 340 335 333 329 327 325 322 323 325 325 324 324 323 323 324 324 323 323 322 321 320 319 319 318 318 318 318 319 322 324 324 323 325 327 326 324 323 321 321
341 342 343 343 344 344 344 345 342 340 336 334 333 330 326 323 322 323 324 326 326 326 325 324 325 325 324 323 322 320 320 319 318 317 317 316 318 319 319 319 321 322 322 321 320 323 324 325 324
334 341 343 343 344 344 345 343 343 340 335 334 333 330 325 322 325 327 327 327 327 326 326 325 324 324 324 323 321 319 319 317 316 316 316 317 317 316 315 315 316 318 320 321 320 320 319 320 320
339 339 340 344 344 344 342 346 345 339 336 336 334 332 329 326 327 328 328 328 327 327 326 324 322 323 323 322 320 318 316 315 315 314 316 314 313 313 313 314 314 317 317 319 318 318 317 317 318
339 338 342 339 339 344 343 352 342 338 338 337 335 332 329 328 328 329 329 327 328 327 324 324 324 322 320 318 318 316 316 314 314 315 314 313 312 311 312 312 312 314 317 318 318 316 317 316 317
341 342 341 338 334 343 345 349 342 337 338 337 334 332 330 329 330 330 328 328 327 325 324 323 321 320 318 316 315 315 314 314 314 313 312 312 311 310 310 310 312 312 315 317 317 317 317 317 317
343 343 339 341 340 336 340 348 343 340 339 336 334 332 330 330 330 328 328 325 323 323 323 321 319 317 314 316 315 314 313 314 312 312 311 311 311 311 310 310 310 311 313 315 316 316 317 317 317
335 340 343 339 336 337 346 348 343 340 339 336 334 333 330 330 328 326 324 324 323 322 321 319 318 316 314 315 315 314 313 314 313 312 312 311 312 312 313 312 313 311 312 313 314 315 316 316 316
338 338 341 337 336 340 345 348 343 341 339 336 335 332 330 329 329 326 325 323 323 321 320 318 317 315 315 314 314 313 314 314 312 311 311 311 313 313 313 313 313 313 313 313 313 314 315 317 316
336 337 340 338 334 341 342 349 342 342 339 335 334 332 329 330 328 326 324 323 322 320 319 317 315 315 314 313 314 313 312 312 311 311 312 313 314 314 314 314 313 313 313 314 314 314 315 317 315
336 335 333 335 337 342 337 343 336 340 341 334 332 330 331 329 327 326 324 323 321 319 317 317 316 315 314 313 314 314 314 312 313 312 312 313 314 314 313 313 314 313 313 313 314 314 314 314 315
333 334 333 333 340 339 341 344 340 338 342 337 333 329 329 328 324 323 323 322 320 318 316 316 316 315 314 314 314 314 314 314 313 312 313 312 312 314 313 314 313 313 313 313 314 315 316 314 315
335 336 333 331 336 346 343 343 338 334 337 338 333 331 328 325 325 324 322 320 318 317 316 315 316 315 314 315 316 315 315 315 314 314 313 313 312 313 313 314 314 314 314 314 314 315 315 315 315
332 332 333 332 336 345 342 340 335 338 337 335 335 330 326 326 325 324 322 320 317 317 316 315 315 314 313 314 315 315 315 314 314 314 313 313 313 312 313 312 313 314 313 313 315 315 314 314 315
328 329 331 336 337 329 335 339 339 335 333 332 329 328 328 327 325 322 320 319 318 316 315 314 314 314 314 313 315 315 315 314 314 314 313 313 313 313 312 311 312 314 313 313 314 314 313 313 314
330 331 329 333 331 336 337 335 333 334 333 330 332 331 330 327 324 322 319 319 317 316 315 314 314 314 314 314 313 314 314 314 315 314 313 313 314 314 312 311 312 314 314 312 314 314 314 314 315
326 328 331 331 339 336 340 336 335 332 328 329 332 331 329 326 322 321 319 318 316 314 314 314 314 314 313 314 314 315 315 315 313 314 313 314 314 313 311 311 312 314 315 315 314 315 314 314 316
332 334 332 334 338 336 337 338 331 327 326 325 325 328 327 325 322 319 318 316 315 314 314 315 314 314 314 314 314 315 316 316 315 315 314 314 314 313 311 312 312 313 314 315 314 313 313 315 316
332 333 335 338 338 335 336 335 327 322 321 323 323 322 324 321 321 319 316 316 314 314 314 314 314 314 314 313 316 316 317 317 316 315 315 314 313 312 312 312 312 312 313 314 314 314 314 313 314
Wind_Speed
8 7 7 8 6 5 18 16 13 16 19 20 24 23 25 18 13 7 5 25 15 20 18 17 17 16 16 15 14 13 13 13 13 12 12 12 13 13 14 13 13 13 13 13 13 9 8 8 8
6 11 14 6 7 5 11 16 16 15 16 20 20 24 25 21 18 9 19 17 21 19 18 19 17 17 17 16 15 14 13 13 12 12 10 10 11 12 13 13 13 13 13 13 12 11 9 7 7
8 11 5 5 3 5 4 16 17 9 9 14 14 19 11 6 19 8 18 21 21 21 19 19 20 19 18 17 15 14 14 12 11 10 8 7 8 10 11 11 12 12 13 12 11 10 7 7 5
7 3 5 3 16 11 11 17 16 17 19 21 22 16 8 23 9 14 17 19 22 21 21 21 20 19 19 18 17 15 13 12 11 9 7 6 6 7 7 8 9 9 10 10 9 8 5 6 4
13 4 4 13 10 19 12 18 2 19 12 16 19 14 7 16 16 21 22 20 23 23 21 19 18 18 18 16 15 13 13 12 10 9 8 6 4 3 3 3 4 6 6 7 6 6 5 2 1
4 6 4 4 16 22 18 20 26 21 17 20 21 12 5 6 18 21 21 19 19 20 19 20 21 19 18 17 15 14 12 11 10 8 7 6 5 4 4 3 2 2 3 4 3 3 3 2 2
9 3 5 11 16 20 16 18 16 16 14 18 14 10 4 11 11 15 18 20 22 20 18 16 17 18 17 17 14 12 12 11 9 8 5 4 6 6 8 5 5 4 4 4 5 5 3 2 2
8 3 2 2 8 12 16 19 16 12 13 12 11 7 6 2 8 13 17 20 21 20 18 15 14 13 13 11 13 13 13 15 15 13 11 8 9 5 9 6 6 7 6 6 7 9 7 6 5
6 5 6 14 12 12 18 19 17 18 20 13 8 11 9 6 7 12 17 16 16 17 16 14 16 15 16 15 11 8 12 14 14 13 16 14 13 11 6 6 7 9 9 7 7 10 9 8 8
5 0 5 16 17 12 21 19 16 12 17 12 13 14 9 4 4 12 15 17 16 14 14 14 14 10 4 8 10 8 10 10 11 11 13 15 14 14 13 7 10 10 8 9 9 9 10 11 11
11 7 11 12 14 17 16 18 16 18 11 9 11 10 13 16 17 18 17 15 11 13 15 16 16 16 16 14 15 15 13 12 12 15 15 12 14 20 14 12 10 5 9 8 10 9 6 7 8
11 16 10 9 11 16 16 16 17 15 11 16 15 16 15 14 13 11 14 13 12 12 11 12 13 15 14 14 14 15 15 14 12 16 14 12 14 18 20 20 17 11 12 10 10 8 8 14 16
14 13 9 8 8 16 15 15 16 18 16 17 18 16 13 13 10 13 13 13 13 11 10 9 9 10 12 13 13 17 17 16 17 17 17 17 13 14 14 19 19 16 18 12 12 7 7 5 8
17 9 6 6 11 13 17 19 9 13 14 15 15 15 15 16 15 12 11 12 11 10 9 9 11 11 13 15 16 18 18 18 19 16 13 11 14 18 19 21 21 22 19 17 11 12 12 13 14
14 20 26 4 6 9 14 10 13 17 16 16 16 14 13 15 15 14 11 13 16 16 11 10 11 15 16 16 17 16 18 16 14 13 11 15 16 18 20 17 21 23 21 19 18 15 12 15 17
14 7 7 15 14 5 17 9 15 19 16 14 16 13 14 12 17 13 18 12 14 10 11 15 12 14 17 17 17 15 13 13 14 11 12 14 17 19 19 20 21 19 20 17 16 17 17 18 20
5 8 12 7 12 14 30 18 15 12 14 12 13 13 10 13 16 19 14 11 10 13 13 12 13 14 17 18 15 14 14 13 10 14 14 16 20 19 18 19 21 21 20 16 16 17 15 14 17
13 6 19 7 7 30 38 12 20 18 13 12 14 14 10 13 11 13 13 15 14 13 8 8 12 15 16 17 18 20 19 17 16 15 14 16 17 16 18 19 19 21 18 15 16 14 14 15 17
12 14 20 13 16 7 2 17 13 13 12 13 13 14 11 10 14 18 14 14 14 10 6 10 11 13 13 17 15 16 16 16 14 11 14 16 16 16 17 18 18 19 18 18 17 16 14 16 17
20 11 7 6 4 6 14 15 15 12 11 12 15 14 10 12 10 14 13 13 8 4 6 10 9 9 10 13 13 14 15 14 8 12 14 14 15 14 17 18 17 17 18 18 15 13 15 14 14
11 11 5 7 7 11 6 7 6 3 5 8 6 7 7 11 10 12 12 9 5 8 5 6 4 6 7 12 11 13 13 15 12 14 14 15 13 14 16 17 17 16 13 14 13 12 13 14 16
8 8 10 11 13 3 9 5 2 9 11 16 13 12 5 9 12 11 10 8 8 3 3 4 5 4 6 10 10 11 12 11 10 12 16 11 13 15 16 16 16 15 15 13 11 10 9 9 12
13 14 16 21 8 6 3 2 10 11 11 13 13 14 13 9 6 10 15 6 2 3 6 8 9 5 8 9 8 10 10 11 11 13 13 12 15 12 16 16 16 16 14 13 11 11 12 10 9
9 16 22 14 5 4 4 5 12 5 12 8 11 14 13 11 12 13 10 5 1 8 10 12 9 7 10 12 9 9 10 12 13 13 10 13 16 11 16 16 17 19 20 14 9 11 11 10 4
17 19 13 13 10 2 18 13 5 10 8 12 12 10 8 8 9 10 7 6 12 10 11 10 11 11 11 11 11 10 10 12 12 13 13 12 15 15 14 18 18 19 17 16 10 7 8 5 3
20 14 10 11 13 18 14 7 4 9 14 10 9 11 8 8 10 8 5 12 14 12 10 14 11 11 9 12 11 8 8 11 11 11 12 12 12 13 11 16 17 16 15 16 15 14 13 12 9
11 12 14 16 20 8 1 3 5 11 11 9 8 5 11 8 7 7 11 12 8 10 11 9 7 8 10 9 8 10 10 12 10 11 11 10 10 11 12 13 15 14 15 14 14 13 13 12 11
14 12 11 10 8 4 8 11 6 4 10 10 10 6 6 6 7 7 5 4 8 11 11 6 7 7 11 12 8 11 11 9 11 9 11 11 10 10 10 12 13 11 11 13 13 12 14 14 12
13 17 13 7 6 3 5 4 4 11 12 11 9 9 8 10 5 6 8 16 9 12 8 5 8 8 9 11 9 12 10 10 8 9 9 10 9 10 8 10 10 11 9 11 12 9 11 10 10
20 17 14 6 8 4 2 3 8 12 12 10 10 12 11 10 8 11 13 9 7 9 7 10 8 8 11 12 10 12 11 10 8 7 9 10 10 8 9 5 9 10 9 12 11 12 8 11 9
Wind_Direction
270 269 267 314 38 40 95 84 73 69 74 72 72 74 74 50 46 76 63 117 100 84 86 84 89 83 78 72 70 69 67 69 69 68 68 68 66 63 62 57 56 52 49 47 58 59 89 100 100
281 246 239 66 63 297 87 93 74 87 106 93 84 82 64 64 71 57 64 73 83 84 79 80 84 86 81 76 73 74 74 73 72 70 71 74 73 66 65 64 59 55 52 51 66 80 95 103 96
284 270 327 90 206 220 77 88 102 96 81 92 88 53 37 360 62 71 100 91 84 82 79 79 78 77 75 74 72 70 72 74 80 79 77 76 76 73 70 65 61 56 52 51 61 81 89 103 107
266 293 71 103 203 222 98 59 80 91 100 102 110 82 84 37 61 88 89 92 91 88 81 80 82 79 75 74 73 72 74 72 67 63 65 64 63 64 64 62 59 54 54 54 53 67 93 95 129
238 41 80 239 120 115 90 105 220 74 74 63 83 86 72 45 78 79 87 90 88 86 83 79 78 80 75 71 69 70 69 69 71 69 59 51 49 40 27 37 48 47 42 44 47 59 58 75 136
90 89 318 239 100 85 77 65 78 92 95 97 94 87 67 52 70 76 88 88 89 92 90 83 73 72 73 72 68 66 63 58 51 44 39 22 2 343 333 314 310 336 353 355 358 23 40 23 335
116 146 299 2 98 87 96 89 81 99 79 50 133 98 87 43 83 88 94 86 92 91 88 81 75 67 62 64 59 60 60 56 50 38 30 0 337 316 316 306 293 282 283 288 290 286 283 282 289
116 144 311 80 300 93 84 79 68 97 59 76 21 135 122 43 90 98 89 75 75 76 78 79 79 72 71 58 51 46 46 36 28 23 7 337 7 283 297 285 318 309 302 284 269 274 274 279 280
106 107 207 170 157 145 121 94 76 77 78 54 58 73 105 121 108 111 106 99 92 83 81 76 65 67 63 54 52 41 35 27 18 21 4 359 339 331 315 294 292 316 307 289 274 275 280 274 271
83 102 251 137 129 133 116 118 127 103 92 85 79 83 98 96 82 94 85 77 70 74 90 79 60 30 25 47 7 5 13 17 357 357 3 344 342 319 312 302 296 290 300 304 282 286 280 276 275
152 203 93 80 112 100 102 103 114 119 79 107 119 104 86 74 73 81 83 87 80 64 59 61 59 37 30 22 19 4 353 4 350 349 348 344 335 327 316 283 266 279 304 288 277 281 277 284 246
158 85 96 104 108 115 106 84 57 71 113 125 125 126 114 105 105 113 107 96 91 78 69 56 51 37 25 14 12 352 344 342 345 333 338 353 345 325 336 336 337 327 321 255 261 248 268 270 275
349 88 102 116 117 108 121 92 100 105 127 126 123 118 119 119 124 131 139 133 103 81 57 48 64 46 21 7 1 344 334 344 350 344 339 354 341 359 344 342 335 323 321 338 338 294 249 263 299
216 278 107 137 107 112 108 134 101 138 141 136 137 136 138 141 145 143 137 102 93 91 68 40 58 46 25 357 358 343 342 350 343 335 352 4 2 354 344 320 322 327 326 312 317 307 316 300 278
104 40 337 81 125 153 148 131 119 150 158 148 144 154 137 141 150 152 111 81 89 78 53 30 18 23 11 355 344 341 336 341 327 337 351 13 5 351 337 316 323 320 318 315 296 296 292 290 306
56 96 188 252 338 248 226 142 148 162 158 152 151 148 147 168 116 108 105 98 81 53 39 35 23 12 359 345 337 329 330 330 342 358 16 359 342 336 330 323 311 318 318 297 295 297 300 289 289
189 227 224 295 29 293 270 131 167 165 161 163 151 155 149 114 102 106 99 103 78 63 45 31 19 9 355 338 340 342 352 343 1 13 4 348 340 337 322 320 313 313 308 308 296 284 289 283 287
236 201 204 16 34 266 280 135 157 169 173 171 158 138 147 139 132 117 120 100 84 68 48 25 24 8 356 352 -0 1 350 356 10 8 355 342 332 330 329 322 315 313 304 303 302 299 289 287 282
47 55 122 162 214 322 123 151 169 161 183 157 161 157 154 143 143 98 94 100 88 71 27 42 30 17 6 1 1 352 341 338 349 350 357 341 338 329 327 314 313 309 314 307 294 303 297 294 285
18 359 345 266 329 214 217 147 167 158 177 171 169 150 140 126 135 121 115 112 100 66 50 45 41 17 9 357 354 346 340 340 322 357 345 337 331 338 337 332 321 311 307 301 301 300 293 291 285
47 302 278 260 288 254 352 117 62 9 164 110 70 76 119 140 141 141 130 113 93 57 27 45 40 37 15 354 354 351 349 352 355 344 329 337 342 336 335 341 339 337 321 302 301 294 286 280 285
237 225 316 269 256 0 336 306 303 190 175 90 80 84 217 159 153 146 134 103 66 17 2 95 102 52 18 353 340 344 338 358 332 324 336 334 346 345 348 345 345 337 338 334 321 310 305 300 289
332 341 315 301 72 255 123 55 24 203 142 131 140 169 225 178 136 93 86 86 130 67 33 125 108 48 14 349 337 341 356 331 335 334 337 347 343 349 346 353 356 357 341 326 313 313 312 309 307
317 311 298 291 242 312 68 24 34 27 249 142 185 187 208 115 101 107 105 133 179 48 35 114 79 34 12 347 346 341 340 331 334 333 334 340 346 355 350 351 347 350 351 347 322 311 313 321 267
346 329 327 340 349 55 107 81 212 299 93 127 172 140 96 111 127 97 176 203 84 39 47 70 46 23 6 351 0 356 343 336 334 346 344 343 345 354 354 359 356 357 4 14 5 28 17 357 16
321 342 359 330 307 310 47 22 44 324 66 40 86 115 92 41 116 153 80 49 33 18 51 54 25 7 357 0 3 358 350 355 349 340 339 339 348 346 351 0 356 2 16 26 47 47 43 38 45
359 343 356 342 299 34 15 132 262 217 127 142 147 185 99 140 185 72 75 68 15 20 58 40 27 3 350 343 351 359 351 347 344 337 344 343 346 349 357 -0 359 6 21 37 33 36 30 29 33
357 21 343 357 9 1 129 64 14 65 40 98 116 105 142 135 116 124 68 77 51 75 98 71 23 8 338 328 334 350 333 351 346 347 341 355 2 5 9 1 9 2 12 16 29 45 32 44 42
18 15 3 73 105 299 332 57 287 20 46 22 38 139 148 114 129 96 59 74 51 89 89 39 15 354 328 338 346 352 346 334 322 343 351 350 7 9 4 9 14 13 8 10 18 20 35 33 34
50 30 18 34 61 129 184 45 279 31 30 31 12 26 51 13 23 67 64 52 38 91 54 44 9 334 326 3 338 3 5 12 1 0 356 7 22 4 342 33 13 8 1 1 29 45 46 39 34